| time (UTC) | temp F | wind direction | speed MPH | gust MPH | rain 1hr in | rain 24hr in | rain mn in | humidity % | barometer mb |
| 20260507142004 | 59 | 339 | 3.0 | 10.0 | 0.00 | 0.02 | 0.00 | 86 | 1019.0 |
| 20260507141504 | 59 | 340 | 4.0 | 11.0 | 0.00 | 0.02 | 0.00 | 86 | 1019.0 |
| 20260507141004 | 59 | 340 | 4.0 | 11.0 | 0.00 | 0.02 | 0.00 | 85 | 1019.0 |
| 20260507140504 | 59 | 336 | 4.0 | 11.0 | 0.00 | 0.02 | 0.00 | 86 | 1019.0 |
| 20260507140004 | 59 | 341 | 4.0 | 11.0 | 0.00 | 0.02 | 0.00 | 87 | 1018.9 |
| 20260507135504 | 58 | 341 | 3.0 | 7.0 | 0.00 | 0.02 | 0.00 | 88 | 1018.9 |
| 20260507135004 | 58 | 333 | 4.0 | 11.0 | 0.00 | 0.02 | 0.00 | 88 | 1019.1 |
| 20260507134504 | 57 | 326 | 6.0 | 12.0 | 0.00 | 0.02 | 0.00 | 88 | 1019.2 |
| 20260507134004 | 57 | 329 | 5.0 | 12.0 | 0.00 | 0.02 | 0.00 | 89 | 1019.2 |
| 20260507133504 | 57 | 332 | 4.0 | 10.0 | 0.00 | 0.02 | 0.00 | 89 | 1019.1 |
| 20260507133004 | 57 | 333 | 3.0 | 10.0 | 0.00 | 0.02 | 0.00 | 90 | 1018.8 |
| 20260507132525 | 57 | 342 | 2.0 | 8.0 | 0.00 | 0.02 | 0.00 | 90 | 1018.4 |
| 20260507132004 | 57 | 337 | 2.0 | 9.0 | 0.00 | 0.02 | 0.00 | 90 | 1018.1 |
| 20260507131504 | 57 | 360 | 2.0 | 9.0 | 0.00 | 0.02 | 0.00 | 90 | 1017.7 |
| 20260507131025 | 57 | 29 | 2.0 | 6.0 | 0.00 | 0.02 | 0.00 | 90 | 1017.6 |
| 20260507130504 | 56 | 342 | 3.0 | 11.0 | 0.00 | 0.02 | 0.00 | 91 | 1018.0 |
| 20260507130004 | 56 | 342 | 4.0 | 11.0 | 0.00 | 0.02 | 0.00 | 91 | 1018.1 |
| 20260507125504 | 56 | 343 | 2.0 | 8.0 | 0.00 | 0.02 | 0.00 | 91 | 1018.1 |
| 20260507125004 | 56 | 344 | 3.0 | 10.0 | 0.00 | 0.02 | 0.00 | 91 | 1018.1 |
| 20260507124504 | 56 | 346 | 3.0 | 10.0 | 0.00 | 0.02 | 0.00 | 91 | 1017.9 |
| 20260507124004 | 56 | 343 | 3.0 | 8.0 | 0.00 | 0.02 | 0.00 | 92 | 1017.8 |
| 20260507123504 | 56 | 344 | 3.0 | 8.0 | 0.00 | 0.02 | 0.00 | 92 | 1017.9 |
| 20260507123004 | 56 | 338 | 3.0 | 8.0 | 0.00 | 0.02 | 0.00 | 92 | 1018.0 |
| 20260507122504 | 56 | 332 | 2.0 | 8.0 | 0.00 | 0.02 | 0.00 | 92 | 1018.0 |
| 20260507122025 | 56 | 337 | 2.0 | 5.0 | 0.00 | 0.02 | 0.00 | 92 | 1018.0 |
| 20260507121525 | 56 | 345 | 2.0 | 5.0 | 0.00 | 0.02 | 0.00 | 92 | 1017.9 |
| 20260507121004 | 56 | 331 | 2.0 | 5.0 | 0.00 | 0.02 | 0.00 | 92 | 1017.9 |
| 20260507120504 | 56 | 331 | 3.0 | 6.0 | 0.00 | 0.02 | 0.00 | 92 | 1017.7 |
| 20260507120005 | 56 | 336 | 3.0 | 6.0 | 0.00 | 0.02 | 0.00 | 93 | 1017.8 |
| 20260507115504 | 56 | 335 | 3.0 | 6.0 | 0.00 | 0.02 | 0.00 | 93 | 1017.7 |
| 20260507115004 | 56 | 338 | 3.0 | 6.0 | 0.00 | 0.02 | 0.00 | 93 | 1017.3 |
| 20260507114504 | 56 | 336 | 2.0 | 5.0 | 0.00 | 0.02 | 0.00 | 93 | 1017.1 |
| 20260507114004 | 56 | 333 | 2.0 | 4.0 | 0.00 | 0.02 | 0.00 | 93 | 1017.0 |
| 20260507113525 | 56 | 357 | 1.0 | 4.0 | 0.00 | 0.02 | 0.00 | 93 | 1017.0 |
| 20260507113004 | 56 | 359 | 1.0 | 6.0 | 0.00 | 0.02 | 0.00 | 93 | 1016.9 |
| 20260507112504 | 56 | 338 | 2.0 | 8.0 | 0.00 | 0.02 | 0.00 | 93 | 1016.9 |
| 20260507112004 | 56 | 2 | 2.0 | 8.0 | 0.00 | 0.02 | 0.00 | 93 | 1017.0 |
| 20260507111506 | 56 | 21 | 1.0 | 4.0 | 0.00 | 0.02 | 0.00 | 93 | 1016.9 |
| 20260507111025 | 56 | 335 | 2.0 | 8.0 | 0.00 | 0.02 | 0.00 | 93 | 1016.8 |
| 20260507110504 | 55 | 328 | 3.0 | 8.0 | 0.00 | 0.02 | 0.00 | 93 | 1016.8 |
| 20260507110004 | 55 | 327 | 3.0 | 6.0 | 0.00 | 0.02 | 0.00 | 93 | 1016.8 |
| 20260507105504 | 55 | 330 | 2.0 | 6.0 | 0.00 | 0.02 | 0.00 | 93 | 1016.7 |
| 20260507105025 | 56 | 334 | 3.0 | 6.0 | 0.00 | 0.02 | 0.00 | 93 | 1016.4 |
| 20260507104504 | 56 | 352 | 3.0 | 7.0 | 0.00 | 0.02 | 0.00 | 93 | 1016.1 |
| 20260507104004 | 56 | 2 | 2.0 | 7.0 | 0.00 | 0.02 | 0.00 | 93 | 1016.3 |
| 20260507103525 | 56 | 349 | 1.0 | 6.0 | 0.00 | 0.02 | 0.00 | 93 | 1016.0 |
| 20260507103004 | 56 | 336 | 2.0 | 8.0 | 0.00 | 0.02 | 0.00 | 93 | 1016.0 |
| 20260507102504 | 56 | 338 | 3.0 | 8.0 | 0.00 | 0.02 | 0.00 | 93 | 1016.0 |
| 20260507102006 | 56 | 353 | 1.0 | 6.0 | 0.00 | 0.02 | 0.00 | 93 | 1015.8 |
| 20260507101525 | 56 | 32 | 1.0 | 3.0 | 0.00 | 0.02 | 0.00 | 93 | 1015.6 |
| 20260507101004 | 56 | 50 | 1.0 | 3.0 | 0.00 | 0.02 | 0.00 | 93 | 1015.6 |
| 20260507100504 | 56 | 65 | 1.0 | 7.0 | 0.00 | 0.02 | 0.00 | 93 | 1015.7 |
| 20260507100004 | 56 | 56 | 2.0 | 7.0 | 0.00 | 0.02 | 0.00 | 93 | 1015.7 |
| 20260507095504 | 56 | 22 | 2.0 | 5.0 | 0.00 | 0.02 | 0.00 | 93 | 1015.8 |
| 20260507095004 | 56 | 356 | 2.0 | 5.0 | 0.00 | 0.02 | 0.00 | 93 | 1016.0 |
| 20260507094525 | 56 | 13 | 2.0 | 5.0 | 0.00 | 0.02 | 0.00 | 93 | 1015.9 |
| 20260507094004 | 56 | 53 | 2.0 | 5.0 | 0.00 | 0.02 | 0.00 | 93 | 1015.4 |
| 20260507093504 | 56 | 52 | 2.0 | 4.0 | 0.00 | 0.02 | 0.00 | 93 | 1015.6 |
| 20260507093004 | 56 | 1 | 3.0 | 8.0 | 0.00 | 0.02 | 0.00 | 93 | 1015.7 |
| 20260507092504 | 56 | 332 | 3.0 | 9.0 | 0.00 | 0.02 | 0.00 | 93 | 1015.8 |
| 20260507092004 | 56 | 347 | 3.0 | 9.0 | 0.00 | 0.02 | 0.00 | 93 | 1015.9 |
| 20260507091504 | 56 | 36 | 2.0 | 5.0 | 0.00 | 0.02 | 0.00 | 93 | 1015.6 |
| 20260507091004 | 56 | 359 | 2.0 | 10.0 | 0.00 | 0.02 | 0.00 | 93 | 1015.5 |
| 20260507090504 | 56 | 334 | 4.0 | 10.0 | 0.00 | 0.02 | 0.00 | 93 | 1015.8 |
| 20260507090025 | 56 | 333 | 4.0 | 10.0 | 0.00 | 0.02 | 0.00 | 93 | 1016.1 |
| 20260507085504 | 56 | 343 | 3.0 | 8.0 | 0.00 | 0.02 | 0.00 | 93 | 1016.2 |
| 20260507085004 | 56 | 334 | 3.0 | 8.0 | 0.00 | 0.02 | 0.00 | 93 | 1016.1 |
| 20260507084504 | 56 | 332 | 3.0 | 6.0 | 0.00 | 0.02 | 0.00 | 93 | 1016.2 |
| 20260507084004 | 56 | 330 | 3.0 | 6.0 | 0.00 | 0.02 | 0.00 | 93 | 1016.2 |
| 20260507083504 | 56 | 329 | 3.0 | 6.0 | 0.00 | 0.02 | 0.00 | 93 | 1016.1 |
| 20260507083025 | 56 | 336 | 2.0 | 6.0 | 0.00 | 0.02 | 0.00 | 93 | 1015.8 |
| 20260507082504 | 56 | 339 | 2.0 | 7.0 | 0.00 | 0.02 | 0.00 | 93 | 1015.8 |
| 20260507082004 | 56 | 341 | 3.0 | 11.0 | 0.00 | 0.02 | 0.00 | 93 | 1015.9 |
| 20260507081525 | 56 | 332 | 4.0 | 11.0 | 0.00 | 0.02 | 0.00 | 93 | 1016.2 |
| 20260507081004 | 56 | 322 | 3.0 | 10.0 | 0.00 | 0.02 | 0.00 | 93 | 1015.9 |
| 20260507080525 | 56 | 337 | 3.0 | 10.0 | 0.00 | 0.02 | 0.00 | 93 | 1016.0 |
| 20260507080004 | 56 | 345 | 3.0 | 8.0 | 0.00 | 0.02 | 0.00 | 93 | 1016.0 |
| 20260507075504 | 56 | 333 | 4.0 | 11.0 | 0.00 | 0.02 | 0.00 | 93 | 1016.4 |
| 20260507075004 | 56 | 337 | 4.0 | 11.0 | 0.00 | 0.02 | 0.00 | 93 | 1016.6 |
| 20260507074504 | 57 | 338 | 4.0 | 10.0 | 0.00 | 0.02 | 0.00 | 94 | 1016.4 |
| 20260507074025 | 57 | 337 | 5.0 | 10.0 | 0.00 | 0.02 | 0.00 | 94 | 1016.3 |
| 20260507073525 | 57 | 335 | 5.0 | 11.0 | 0.00 | 0.02 | 0.00 | 93 | 1016.3 |
| 20260507073004 | 57 | 334 | 6.0 | 11.0 | 0.00 | 0.02 | 0.00 | 93 | 1016.3 |
| 20260507072504 | 57 | 336 | 5.0 | 10.0 | 0.00 | 0.02 | 0.00 | 93 | 1016.3 |
| 20260507072004 | 57 | 339 | 4.0 | 10.0 | 0.00 | 0.02 | 0.00 | 93 | 1016.2 |
| 20260507071504 | 57 | 336 | 5.0 | 11.0 | 0.00 | 0.02 | 0.00 | 94 | 1016.0 |
| 20260507071004 | 58 | 335 | 5.0 | 11.0 | 0.00 | 0.02 | 0.00 | 93 | 1016.1 |
| 20260507070504 | 58 | 344 | 3.0 | 10.0 | 0.00 | 0.02 | 0.00 | 93 | 1016.2 |
| 20260507070008 | 58 | 2 | 2.0 | 6.0 | 0.00 | 0.02 | 0.00 | 94 | 1016.1 |
| 20260507065504 | 58 | 5 | 2.0 | 5.0 | 0.00 | 0.02 | 0.00 | 94 | 1016.3 |
| 20260507065004 | 58 | 347 | 2.0 | 9.0 | 0.00 | 0.02 | 0.00 | 94 | 1016.1 |
| 20260507064504 | 58 | 340 | 3.0 | 12.0 | 0.00 | 0.02 | 0.00 | 94 | 1016.2 |
| 20260507064004 | 58 | 331 | 3.0 | 12.0 | 0.00 | 0.02 | 0.00 | 94 | 1016.0 |
| 20260507063504 | 58 | 349 | 2.0 | 9.0 | 0.00 | 0.02 | 0.00 | 93 | 1015.9 |
| 20260507063004 | 58 | 356 | 2.0 | 14.0 | 0.00 | 0.02 | 0.00 | 93 | 1015.7 |
| 20260507062504 | 58 | 350 | 3.0 | 14.0 | 0.00 | 0.02 | 0.00 | 93 | 1015.8 |
| 20260507062004 | 58 | 349 | 3.0 | 9.0 | 0.00 | 0.02 | 0.00 | 93 | 1015.9 |
| 20260507061504 | 59 | 346 | 4.0 | 13.0 | 0.00 | 0.02 | 0.00 | 93 | 1015.8 |
| 20260507061004 | 59 | 352 | 5.0 | 13.0 | 0.00 | 0.02 | 0.00 | 94 | 1015.9 |
| 20260507060525 | 59 | 10 | 4.0 | 12.0 | 0.00 | 0.02 | 0.00 | 94 | 1016.0 |
| 20260507060004 | 59 | 13 | 3.0 | 10.0 | 0.00 | 0.02 | 0.00 | 93 | 1015.9 |
| 20260507055504 | 59 | 339 | 3.0 | 10.0 | 0.00 | 0.02 | 0.00 | 93 | 1016.3 |
| 20260507055004 | 59 | 346 | 4.0 | 11.0 | 0.00 | 0.02 | 0.00 | 93 | 1016.3 |
| 20260507054504 | 59 | 350 | 4.0 | 11.0 | 0.00 | 0.02 | 0.00 | 93 | 1016.0 |
| 20260507054004 | 59 | 332 | 4.0 | 10.0 | 0.00 | 0.02 | 0.00 | 93 | 1016.1 |
| 20260507053504 | 59 | 335 | 4.0 | 10.0 | 0.00 | 0.02 | 0.00 | 93 | 1016.2 |
| 20260507053004 | 59 | 338 | 4.0 | 12.0 | 0.00 | 0.02 | 0.00 | 93 | 1016.1 |
| 20260507052503 | 59 | 335 | 4.0 | 12.0 | 0.00 | 0.02 | 0.00 | 93 | 1016.2 |
| 20260507052004 | 59 | 334 | 4.0 | 11.0 | 0.00 | 0.02 | 0.00 | 93 | 1016.0 |
| 20260507051525 | 59 | 337 | 5.0 | 14.0 | 0.00 | 0.02 | 0.00 | 93 | 1016.0 |
| 20260507051004 | 59 | 340 | 4.0 | 14.0 | 0.00 | 0.02 | 0.00 | 93 | 1015.7 |
| 20260507050504 | 59 | 340 | 4.0 | 9.0 | 0.00 | 0.02 | 0.00 | 93 | 1015.7 |
| 20260507050004 | 60 | 338 | 4.0 | 9.0 | 0.00 | 0.02 | 0.00 | 93 | 1015.9 |
| 20260507045504 | 60 | 336 | 3.0 | 8.0 | 0.00 | 0.02 | 0.02 | 93 | 1015.7 |
| 20260507045004 | 60 | 336 | 4.0 | 11.0 | 0.00 | 0.02 | 0.02 | 93 | 1016.0 |
| 20260507044504 | 60 | 330 | 4.0 | 11.0 | 0.00 | 0.02 | 0.02 | 93 | 1016.0 |
| 20260507044004 | 60 | 324 | 3.0 | 8.0 | 0.00 | 0.02 | 0.02 | 93 | 1016.1 |
| 20260507043504 | 60 | 329 | 4.0 | 10.0 | 0.00 | 0.02 | 0.02 | 93 | 1015.8 |
| 20260507043004 | 60 | 336 | 4.0 | 10.0 | 0.00 | 0.02 | 0.02 | 93 | 1015.3 |
| 20260507042504 | 61 | 342 | 4.0 | 9.0 | 0.00 | 0.02 | 0.02 | 92 | 1015.1 |
| 20260507042025 | 61 | 340 | 5.0 | 13.0 | 0.00 | 0.02 | 0.02 | 92 | 1015.2 |
| 20260507041504 | 61 | 331 | 5.0 | 13.0 | 0.00 | 0.02 | 0.02 | 92 | 1015.3 |
| 20260507041004 | 61 | 328 | 5.0 | 10.0 | 0.00 | 0.02 | 0.02 | 92 | 1015.6 |
| 20260507040504 | 61 | 330 | 5.0 | 11.0 | 0.00 | 0.02 | 0.02 | 92 | 1015.5 |
| 20260507040004 | 61 | 331 | 5.0 | 11.0 | 0.00 | 0.02 | 0.02 | 92 | 1015.3 |
| 20260507035525 | 62 | 329 | 5.0 | 9.0 | 0.00 | 0.02 | 0.02 | 92 | 1015.1 |
| 20260507035025 | 62 | 334 | 3.0 | 9.0 | 0.00 | 0.02 | 0.02 | 92 | 1015.1 |
| 20260507034525 | 62 | 5 | 2.0 | 9.0 | 0.00 | 0.02 | 0.02 | 92 | 1014.8 |
| 20260507034004 | 62 | 17 | 2.0 | 6.0 | 0.00 | 0.02 | 0.02 | 92 | 1014.5 |
| 20260507033504 | 62 | 335 | 3.0 | 10.0 | 0.00 | 0.02 | 0.02 | 92 | 1014.6 |
| 20260507033004 | 62 | 332 | 5.0 | 10.0 | 0.00 | 0.02 | 0.02 | 92 | 1014.7 |
| 20260507032504 | 62 | 334 | 5.0 | 11.0 | 0.00 | 0.02 | 0.02 | 92 | 1014.7 |
| 20260507032004 | 62 | 333 | 4.0 | 12.0 | 0.00 | 0.02 | 0.02 | 92 | 1014.5 |
| 20260507031504 | 62 | 334 | 4.0 | 12.0 | 0.00 | 0.02 | 0.02 | 92 | 1014.5 |
| 20260507031004 | 62 | 332 | 4.0 | 10.0 | 0.00 | 0.02 | 0.02 | 92 | 1014.4 |
| 20260507030504 | 63 | 334 | 4.0 | 10.0 | 0.00 | 0.02 | 0.02 | 92 | 1014.5 |
| 20260507030004 | 63 | 336 | 5.0 | 12.0 | 0.00 | 0.02 | 0.02 | 92 | 1014.3 |
| 20260507025504 | 63 | 335 | 4.0 | 13.0 | 0.00 | 0.02 | 0.02 | 92 | 1014.3 |
| 20260507025025 | 63 | 343 | 3.0 | 13.0 | 0.00 | 0.02 | 0.02 | 92 | 1014.2 |
| 20260507024503 | 63 | 1 | 3.0 | 9.0 | 0.00 | 0.02 | 0.02 | 92 | 1014.1 |
| 20260507024004 | 64 | 357 | 3.0 | 12.0 | 0.00 | 0.02 | 0.02 | 92 | 1013.8 |
| 20260507023504 | 64 | 338 | 5.0 | 16.0 | 0.00 | 0.02 | 0.02 | 92 | 1013.9 |
| 20260507023004 | 64 | 335 | 6.0 | 16.0 | 0.00 | 0.02 | 0.02 | 92 | 1013.8 |
| 20260507022503 | 64 | 333 | 4.0 | 10.0 | 0.00 | 0.02 | 0.02 | 92 | 1013.5 |
| 20260507022025 | 65 | 337 | 3.0 | 9.0 | 0.00 | 0.02 | 0.02 | 92 | 1013.3 |
| 20260507021503 | 65 | 349 | 3.0 | 9.0 | 0.00 | 0.02 | 0.02 | 92 | 1013.2 |
| 20260507021003 | 65 | 335 | 3.0 | 9.0 | 0.00 | 0.02 | 0.02 | 92 | 1013.3 |
| 20260507020503 | 66 | 333 | 4.0 | 9.0 | 0.00 | 0.02 | 0.02 | 92 | 1013.2 |
| 20260507020004 | 66 | 346 | 3.0 | 9.0 | 0.00 | 0.02 | 0.02 | 92 | 1012.9 |
| 20260507015503 | 66 | 360 | 2.0 | 10.0 | 0.00 | 0.02 | 0.02 | 92 | 1012.8 |
| 20260507015004 | 66 | 350 | 3.0 | 10.0 | 0.00 | 0.02 | 0.02 | 92 | 1012.9 |
| 20260507014504 | 66 | 347 | 4.0 | 9.0 | 0.00 | 0.02 | 0.02 | 92 | 1012.9 |
| 20260507014004 | 66 | 341 | 4.0 | 10.0 | 0.00 | 0.02 | 0.02 | 92 | 1012.8 |
| 20260507013503 | 66 | 345 | 4.0 | 10.0 | 0.00 | 0.02 | 0.02 | 92 | 1012.9 |
| 20260507013004 | 66 | 347 | 3.0 | 9.0 | 0.00 | 0.02 | 0.02 | 92 | 1012.8 |
| 20260507012503 | 66 | 347 | 3.0 | 9.0 | 0.00 | 0.02 | 0.02 | 92 | 1012.5 |
| 20260507012004 | 67 | 342 | 4.0 | 14.0 | 0.00 | 0.02 | 0.02 | 93 | 1012.4 |
| 20260507011503 | 67 | 337 | 5.0 | 14.0 | 0.00 | 0.02 | 0.02 | 93 | 1012.4 |
| 20260507011003 | 67 | 341 | 4.0 | 12.0 | 0.00 | 0.02 | 0.02 | 93 | 1012.0 |
| 20260507010525 | 67 | 352 | 4.0 | 12.0 | 0.00 | 0.02 | 0.02 | 93 | 1011.8 |
| 20260507010004 | 68 | 360 | 3.0 | 11.0 | 0.00 | 0.02 | 0.02 | 93 | 1011.6 |
| 20260507005504 | 68 | 342 | 4.0 | 11.0 | 0.00 | 0.02 | 0.02 | 93 | 1011.6 |
| 20260507005004 | 68 | 331 | 5.0 | 11.0 | 0.00 | 0.02 | 0.02 | 93 | 1011.7 |
| 20260507004524 | 68 | 334 | 5.0 | 11.0 | 0.00 | 0.02 | 0.02 | 93 | 1011.6 |
| 20260507004004 | 68 | 346 | 4.0 | 13.0 | 0.00 | 0.02 | 0.02 | 93 | 1011.6 |
| 20260507003525 | 69 | 351 | 4.0 | 13.0 | 0.00 | 0.02 | 0.02 | 93 | 1011.4 |
| 20260507003024 | 69 | 349 | 3.0 | 6.0 | 0.00 | 0.02 | 0.02 | 93 | 1011.4 |
| 20260507002503 | 70 | 344 | 2.0 | 6.0 | 0.00 | 0.02 | 0.02 | 93 | 1011.4 |
| 20260507002025 | 70 | 356 | 2.0 | 6.0 | 0.00 | 0.02 | 0.02 | 93 | 1011.4 |
| 20260507001503 | 70 | 343 | 4.0 | 12.0 | 0.02 | 0.02 | 0.02 | 93 | 1011.3 |
| 20260507001003 | 70 | 335 | 5.0 | 12.0 | 0.02 | 0.02 | 0.02 | 93 | 1011.3 |
| 20260507000503 | 70 | 348 | 4.0 | 11.0 | 0.02 | 0.02 | 0.02 | 93 | 1011.2 |
| 20260507000004 | 71 | 1 | 3.0 | 11.0 | 0.02 | 0.02 | 0.02 | 93 | 1011.1 |
| 20260506235524 | 71 | 339 | 5.0 | 15.0 | 0.02 | 0.02 | 0.02 | 93 | 1011.1 |
| 20260506235003 | 71 | 332 | 7.0 | 15.0 | 0.02 | 0.02 | 0.02 | 93 | 1011.0 |
| 20260506234504 | 71 | 326 | 6.0 | 14.0 | 0.02 | 0.02 | 0.02 | 92 | 1010.9 |
| 20260506234004 | 71 | 325 | 4.0 | 12.0 | 0.02 | 0.02 | 0.02 | 92 | 1010.8 |
| 20260506233504 | 72 | 332 | 4.0 | 9.0 | 0.02 | 0.02 | 0.02 | 92 | 1010.7 |
| 20260506233003 | 72 | 338 | 3.0 | 9.0 | 0.02 | 0.02 | 0.02 | 91 | 1010.5 |
| 20260506232503 | 73 | 336 | 4.0 | 13.0 | 0.02 | 0.02 | 0.02 | 90 | 1010.4 |
| 20260506232003 | 73 | 327 | 7.0 | 13.0 | 0.02 | 0.02 | 0.02 | 89 | 1010.4 |
| 20260506231503 | 74 | 319 | 7.0 | 15.0 | 0.00 | 0.00 | 0.00 | 87 | 1010.3 |
| 20260506231004 | 76 | 318 | 5.0 | 15.0 | 0.00 | 0.00 | 0.00 | 86 | 1010.3 |
| 20260506230503 | 77 | 337 | 5.0 | 11.0 | 0.00 | 0.00 | 0.00 | 86 | 1010.2 |
| 20260506230004 | 78 | 339 | 5.0 | 11.0 | 0.00 | 0.00 | 0.00 | 85 | 1010.0 |
| 20260506225503 | 81 | 341 | 2.0 | 8.0 | 0.00 | 0.00 | 0.00 | 87 | 1009.8 |
| 20260506225004 | 82 | 26 | 1.0 | 2.0 | 0.00 | 0.00 | 0.00 | 87 | 1009.7 |
| 20260506224503 | 82 | 34 | 1.0 | 2.0 | 0.00 | 0.00 | 0.00 | 86 | 1009.7 |
| 20260506224003 | 82 | 31 | 1.0 | 2.0 | 0.00 | 0.00 | 0.00 | 86 | 1009.7 |
| 20260506223504 | 82 | 2 | 1.0 | 2.0 | 0.00 | 0.00 | 0.00 | 85 | 1009.8 |
| 20260506223004 | 82 | 350 | 0.0 | 2.0 | 0.00 | 0.00 | 0.00 | 84 | 1010.0 |
| 20260506222503 | 83 | 353 | 0.0 | 1.0 | 0.00 | 0.00 | 0.00 | 83 | 1009.9 |
| 20260506222003 | 83 | 354 | 0.0 | 1.0 | 0.00 | 0.00 | 0.00 | 82 | 1009.7 |
| 20260506221504 | 83 | 341 | 0.0 | 1.0 | 0.00 | 0.00 | 0.00 | 81 | 1009.8 |
| 20260506221004 | 83 | 333 | 1.0 | 2.0 | 0.00 | 0.00 | 0.00 | 81 | 1009.7 |
| 20260506220524 | 84 | 349 | 1.0 | 2.0 | 0.00 | 0.00 | 0.00 | 80 | 1009.6 |
| 20260506220004 | 84 | 73 | 0.0 | 2.0 | 0.00 | 0.00 | 0.00 | 80 | 1009.6 |
| 20260506215503 | 84 | 241 | 1.0 | 3.0 | 0.00 | 0.00 | 0.00 | 81 | 1009.7 |
| 20260506215004 | 83 | 221 | 1.0 | 3.0 | 0.00 | 0.00 | 0.00 | 81 | 1009.6 |
| 20260506214503 | 83 | 184 | 1.0 | 4.0 | 0.00 | 0.00 | 0.00 | 81 | 1009.4 |
| 20260506214025 | 83 | 180 | 1.0 | 4.0 | 0.00 | 0.00 | 0.00 | 81 | 1009.5 |
| 20260506213503 | 83 | 220 | 1.0 | 2.0 | 0.00 | 0.00 | 0.00 | 81 | 1009.7 |
| 20260506213003 | 83 | 240 | 1.0 | 2.0 | 0.00 | 0.00 | 0.00 | 81 | 1009.7 |
| 20260506212504 | 82 | 181 | 1.0 | 2.0 | 0.00 | 0.00 | 0.00 | 83 | 1009.8 |
| 20260506212003 | 82 | 196 | 1.0 | 2.0 | 0.00 | 0.00 | 0.00 | 83 | 1009.8 |
| 20260506211504 | 82 | 220 | 1.0 | 4.0 | 0.00 | 0.00 | 0.00 | 83 | 1009.9 |
| 20260506211003 | 82 | 241 | 1.0 | 4.0 | 0.00 | 0.00 | 0.00 | 84 | 1009.9 |
| 20260506210503 | 82 | 108 | 1.0 | 3.0 | 0.00 | 0.00 | 0.00 | 84 | 1009.8 |
| 20260506210004 | 82 | 156 | 1.0 | 3.0 | 0.00 | 0.00 | 0.00 | 83 | 1009.9 |
| 20260506205503 | 82 | 160 | 1.0 | 3.0 | 0.00 | 0.00 | 0.00 | 82 | 1009.9 |
| 20260506205003 | 83 | 161 | 1.0 | 4.0 | 0.00 | 0.00 | 0.00 | 82 | 1009.9 |
| 20260506204504 | 83 | 156 | 2.0 | 4.0 | 0.00 | 0.00 | 0.00 | 81 | 1009.9 |
| 20260506204004 | 83 | 149 | 1.0 | 4.0 | 0.00 | 0.00 | 0.00 | 80 | 1010.0 |
| 20260506203503 | 84 | 152 | 2.0 | 4.0 | 0.00 | 0.00 | 0.00 | 81 | 1010.0 |
| 20260506203024 | 84 | 160 | 2.0 | 4.0 | 0.00 | 0.00 | 0.00 | 80 | 1010.0 |
| 20260506202503 | 83 | 227 | 2.0 | 4.0 | 0.00 | 0.00 | 0.00 | 82 | 1009.9 |
| 20260506202003 | 83 | 217 | 2.0 | 6.0 | 0.00 | 0.00 | 0.00 | 80 | 1010.0 |
| 20260506201503 | 83 | 165 | 2.0 | 6.0 | 0.00 | 0.00 | 0.00 | 81 | 1010.0 |
| 20260506201003 | 83 | 151 | 3.0 | 6.0 | 0.00 | 0.00 | 0.00 | 82 | 1010.1 |
| 20260506200503 | 83 | 154 | 3.0 | 6.0 | 0.00 | 0.00 | 0.00 | 80 | 1010.2 |
| 20260506200004 | 84 | 175 | 2.0 | 6.0 | 0.00 | 0.00 | 0.00 | 80 | 1010.1 |
| 20260506195503 | 84 | 206 | 1.0 | 6.0 | 0.00 | 0.00 | 0.00 | 81 | 1010.0 |
| 20260506195003 | 83 | 173 | 2.0 | 6.0 | 0.00 | 0.00 | 0.00 | 82 | 1010.0 |
| 20260506194503 | 83 | 171 | 2.0 | 5.0 | 0.00 | 0.00 | 0.00 | 82 | 1010.0 |
| 20260506194003 | 83 | 151 | 2.0 | 5.0 | 0.00 | 0.00 | 0.00 | 83 | 1010.0 |
| 20260506193524 | 82 | 154 | 2.0 | 5.0 | 0.00 | 0.00 | 0.00 | 83 | 1009.9 |
| 20260506193003 | 82 | 193 | 1.0 | 5.0 | 0.00 | 0.00 | 0.00 | 85 | 1009.9 |
| 20260506192504 | 81 | 210 | 1.0 | 5.0 | 0.00 | 0.00 | 0.00 | 84 | 1009.8 |
| 20260506192003 | 81 | 290 | 2.0 | 5.0 | 0.00 | 0.00 | 0.00 | 84 | 1010.0 |
| 20260506191524 | 81 | 259 | 2.0 | 5.0 | 0.00 | 0.00 | 0.00 | 85 | 1010.0 |
| 20260506191003 | 81 | 236 | 2.0 | 3.0 | 0.00 | 0.00 | 0.00 | 86 | 1010.2 |
| 20260506190503 | 80 | 225 | 1.0 | 3.0 | 0.00 | 0.00 | 0.00 | 85 | 1010.5 |
| 20260506190004 | 80 | 172 | 1.0 | 4.0 | 0.00 | 0.00 | 0.00 | 86 | 1010.5 |
| 20260506185504 | 80 | 177 | 1.0 | 4.0 | 0.00 | 0.00 | 0.00 | 86 | 1010.7 |
| 20260506185024 | 80 | 174 | 1.0 | 4.0 | 0.00 | 0.00 | 0.00 | 86 | 1010.8 |
| 20260506184503 | 80 | 155 | 1.0 | 4.0 | 0.00 | 0.00 | 0.00 | 86 | 1011.1 |
| 20260506184024 | 80 | 12 | 1.0 | 3.0 | 0.00 | 0.00 | 0.00 | 86 | 1011.2 |
| 20260506183503 | 80 | 360 | 1.0 | 3.0 | 0.00 | 0.00 | 0.00 | 86 | 1011.2 |
| 20260506183004 | 80 | 175 | 0.0 | 1.0 | 0.00 | 0.00 | 0.00 | 87 | 1011.5 |
| 20260506182524 | 80 | 164 | 0.0 | 1.0 | 0.00 | 0.00 | 0.00 | 87 | 1011.6 |
| 20260506182003 | 80 | 127 | 0.0 | 1.0 | 0.00 | 0.00 | 0.00 | 88 | 1011.6 |
| 20260506181524 | 80 | 148 | 1.0 | 2.0 | 0.00 | 0.00 | 0.00 | 87 | 1011.8 |
| 20260506181003 | 80 | 163 | 1.0 | 2.0 | 0.00 | 0.00 | 0.00 | 87 | 1011.9 |
| 20260506180503 | 80 | 186 | 0.0 | 2.0 | 0.00 | 0.00 | 0.00 | 87 | 1012.1 |
| 20260506180024 | 80 | 139 | 1.0 | 2.0 | 0.00 | 0.00 | 0.00 | 88 | 1012.1 |
| 20260506175503 | 80 | 167 | 1.0 | 2.0 | 0.00 | 0.00 | 0.00 | 87 | 1012.1 |
| 20260506175003 | 80 | 201 | 0.0 | 2.0 | 0.00 | 0.00 | 0.00 | 87 | 1012.3 |
| 20260506174504 | 80 | 178 | 0.0 | 2.0 | 0.00 | 0.00 | 0.00 | 87 | 1012.5 |
| 20260506174003 | 80 | 136 | 0.0 | 2.0 | 0.00 | 0.00 | 0.00 | 87 | 1012.5 |
| 20260506173524 | 80 | 144 | 1.0 | 3.0 | 0.00 | 0.00 | 0.00 | 88 | 1012.4 |
| 20260506173003 | 80 | 131 | 1.0 | 3.0 | 0.00 | 0.00 | 0.00 | 88 | 1012.5 |
| 20260506172503 | 80 | 26 | 1.0 | 3.0 | 0.00 | 0.00 | 0.00 | 88 | 1012.5 |
| 20260506172024 | 79 | 1 | 1.0 | 3.0 | 0.00 | 0.00 | 0.00 | 89 | 1012.7 |
| 20260506171504 | 79 | 359 | 1.0 | 3.0 | 0.00 | 0.00 | 0.00 | 89 | 1012.9 |
| 20260506171003 | 79 | 354 | 0.0 | 2.0 | 0.00 | 0.00 | 0.00 | 89 | 1013.0 |
| 20260506170503 | 79 | 360 | 1.0 | 3.0 | 0.00 | 0.00 | 0.00 | 88 | 1013.0 |
| 20260506170004 | 79 | 359 | 1.0 | 3.0 | 0.00 | 0.00 | 0.00 | 88 | 1012.9 |
| 20260506165504 | 79 | 358 | 1.0 | 2.0 | 0.00 | 0.00 | 0.00 | 88 | 1013.0 |
| 20260506165003 | 79 | 138 | 1.0 | 4.0 | 0.00 | 0.00 | 0.00 | 88 | 1012.8 |
| 20260506164503 | 79 | 149 | 1.0 | 4.0 | 0.00 | 0.00 | 0.00 | 88 | 1012.8 |
| 20260506164003 | 79 | 6 | 1.0 | 2.0 | 0.00 | 0.00 | 0.00 | 88 | 1012.7 |
| 20260506163504 | 79 | 7 | 1.0 | 4.0 | 0.00 | 0.00 | 0.00 | 89 | 1012.6 |
| 20260506163003 | 79 | 152 | 1.0 | 4.0 | 0.00 | 0.00 | 0.00 | 89 | 1012.2 |
| 20260506162503 | 79 | 153 | 1.0 | 3.0 | 0.00 | 0.00 | 0.00 | 89 | 1012.2 |
| 20260506162003 | 79 | 154 | 2.0 | 4.0 | 0.00 | 0.00 | 0.00 | 89 | 1012.4 |
| 20260506161503 | 79 | 156 | 2.0 | 4.0 | 0.00 | 0.00 | 0.00 | 89 | 1012.2 |
| 20260506161024 | 79 | 153 | 1.0 | 4.0 | 0.00 | 0.00 | 0.00 | 89 | 1012.3 |
| 20260506160503 | 79 | 158 | 1.0 | 3.0 | 0.00 | 0.00 | 0.00 | 89 | 1012.4 |
| 20260506160004 | 78 | 161 | 1.0 | 3.0 | 0.00 | 0.00 | 0.00 | 90 | 1012.4 |
| 20260506155503 | 78 | 151 | 1.0 | 4.0 | 0.00 | 0.00 | 0.00 | 90 | 1012.3 |
| 20260506155003 | 78 | 151 | 2.0 | 5.0 | 0.00 | 0.00 | 0.00 | 90 | 1012.3 |
| 20260506154504 | 78 | 158 | 1.0 | 5.0 | 0.00 | 0.00 | 0.00 | 90 | 1012.2 |
| 20260506154024 | 78 | 169 | 1.0 | 3.0 | 0.00 | 0.00 | 0.00 | 90 | 1012.1 |
| 20260506153503 | 78 | 170 | 1.0 | 3.0 | 0.00 | 0.00 | 0.00 | 90 | 1012.3 |
| 20260506153024 | 78 | 165 | 1.0 | 3.0 | 0.00 | 0.00 | 0.00 | 90 | 1012.2 |
| 20260506152524 | 78 | 166 | 1.0 | 3.0 | 0.00 | 0.00 | 0.00 | 90 | 1012.1 |
| 20260506152024 | 78 | 171 | 1.0 | 3.0 | 0.00 | 0.00 | 0.00 | 91 | 1012.1 |
| 20260506151503 | 78 | 190 | 0.0 | 2.0 | 0.00 | 0.00 | 0.00 | 91 | 1012.1 |
| 20260506151003 | 78 | 198 | 1.0 | 2.0 | 0.00 | 0.00 | 0.00 | 91 | 1012.0 |
| 20260506150503 | 78 | 182 | 1.0 | 3.0 | 0.00 | 0.00 | 0.00 | 91 | 1012.0 |
| 20260506150004 | 78 | 162 | 1.0 | 4.0 | 0.00 | 0.00 | 0.00 | 91 | 1011.9 |
| 20260506145524 | 77 | 161 | 1.0 | 4.0 | 0.00 | 0.00 | 0.00 | 91 | 1011.8 |
| 20260506145003 | 77 | 160 | 1.0 | 2.0 | 0.00 | 0.00 | 0.00 | 91 | 1011.8 |
| 20260506144503 | 77 | 160 | 1.0 | 2.0 | 0.00 | 0.00 | 0.00 | 91 | 1011.7 |
| 20260506144003 | 77 | 160 | 1.0 | 2.0 | 0.00 | 0.00 | 0.00 | 91 | 1011.5 |
| 20260506143503 | 77 | 159 | 1.0 | 4.0 | 0.00 | 0.00 | 0.00 | 91 | 1011.7 |
| 20260506143003 | 77 | 158 | 2.0 | 5.0 | 0.00 | 0.00 | 0.00 | 91 | 1011.7 |
| 20260506142503 | 77 | 157 | 2.0 | 5.0 | 0.00 | 0.00 | 0.00 | 91 | 1011.6 |